sat.trackr.live / text

‹ back to catalog

BEIDOU-2 G4 (C04)

NORAD 37210 · 2010-057A

PAYLOAD ACTIVE UNKNOWN

§ Identity

Operator
Country
PRC
Launch date
2010-10-31
Launch site
XICLF
Launch vehicle
Mass (kg)
RCS (m²)
19.95

Purposes: comms, nav

External: N2YO · Heavens-Above · Gunter

§ Orbital elements

Epoch: 2026-09-20T05:54:29.344608Z

Period
1,436.10 min
Inclination
3.8775°
Eccentricity
0.0007961
Mean motion
1.00271353 rev/d
Perigee alt
35,753.1 km
Apogee alt
35,820.3 km
Semi-major
42,164.9 km
B*
0.0000e+0
RAAN
68.2621°
Arg perigee
179.4623°
Mean anomaly
0.0191°
Rev number
5,824

§ Raw data

BEIDOU-2 G4 (C04)1 37210U 10057A   26263.24617297 -.00000115  00000+0  00000+0 0  99992 37210   3.8775  68.2621 0007961 179.4623   0.0191  1.00271353 58247

JSON: /api/v1/satellites/37210 · /tle

For live sub-satellite position, see the globe view (requires WebGL).

§ Visibility from observer

Set your observer location to see the next 7 days of passes ≥ 10°. The values pass through the URL so the page stays shareable.

No JS? Fill the form by hand. The geolocation button needs JavaScript.